News / 

AP-UT--SLC-UT 2nd Weather Roundup, UT



Estimated read time: 1-2 minutes

This archived news story is available only for your personal, non-commercial use. Information in the story may be outdated or superseded by additional information. Reading or replaying the story in its archived form does not constitute a republication of the story.

AP-UT--SLC-UT 2nd Weather Roundup

725

ASUS45 KSLC 070310

RWRUT

UTAH REGIONAL WEATHER ROUNDUP

NATIONAL WEATHER SERVICE SALT LAKE CITY UT

800 PM MST THU MAR 06 2014

UTZ001>011-023>025-070400-

NORTHERN UTAH

CITY SKY/WX TMP DP RH WIND PRES REMARKS

HILL AFB CLOUDY 43 36 75 NW3 29.95S

LOGAN MOCLDY 40 37 89 SW8 29.96F WCI 34

OGDEN CLOUDY 44 39 82 CALM 29.95S

PROVO AIRPORT LGT RAIN 45 39 81 E6 29.95S

SALT LAKE CITY LGT RAIN 49 44 83 E5 29.94F

VERNAL CLOUDY 47 28 47 W6 29.87F

WENDOVER MOCLDY 46 30 53 SE6 29.94R

HEBER CITY MIX PCPN 41 36 81 SE7 29.93F

WEST JORDAN CLOUDY 45 45 100 NW5 29.96S

$$

UTZ012>022-026-027-070400-

SOUTHERN UTAH

CITY SKY/WX TMP DP RH WIND PRES REMARKS

BRYCE CANYON PTCLDY 42 25 50 S6 30.02S

CEDAR CITY PTCLDY 50 29 44 S7 29.93S

MILFORD CLOUDY 53 28 38 S13 29.90R

MOAB/CYNLANDS CLEAR 51 27 39 W7 29.86F

PRICE PTCLDY 46 21 37 E6 29.90F

ST GEORGE CLOUDY 57 28 33 CALM 29.88S

$$

REGIONAL REPORTS COLORADO/ARIZONA

CITY SKY/WX TMP DP RH WIND PRES REMARKS

CRAIG, CO CLOUDY 43 26 51 W3 29.92S

GRAND JUNCTION CLOUDY 49 30 48 E14 29.91S

RIFLE CLOUDY 48 29 47 VRB3 29.92S

MONTROSE CLOUDY 53 22 29 S7 29.97S

CORTEZ MOCLDY 47 23 38 MISG 29.98S

PAGE, AZ PTCLDY 55 25 31 CALM 29.91S

GRAND CANYON CLEAR 47 14 26 SW8 30.03S

KINGMAN CLEAR 62 28 27 S12 29.90F

FLAGSTAFF CLEAR 38 25 59 CALM 30.08R

$$

REGIONAL REPORTS NEVADA/IDAHO/WYOMING

CITY SKY/WX TMP DP RH WIND PRES REMARKS

LAS VEGAS, NV PTCLDY 73 37 27 SW12 29.78R

ELY LGT RAIN 41 39 93 VRB5 29.98R

ELKO CLOUDY 42 33 70 W22G28 30.02R

POCATELLO, ID PTCLDY 42 35 76 SW15 29.93R

BURLEY CLOUDY 43 39 86 SW13G18 29.96R

EVANSTON, WY CLOUDY 34 32 92 W12 29.96S WCI 25

ROCK SPRINGS SNOW 32 32 100 S7 29.94F VSB 1/2 WCI 26

$$

Delivered by Weather Underground Inc. Thu Mar 6 2014 10:10PM EST

Copyright © The Associated Press. All rights reserved. This material may not be published, broadcast, rewritten or redistributed.

The Associated Press

    SIGN UP FOR THE KSL.COM NEWSLETTER

    Catch up on the top news and features from KSL.com, sent weekly.
    By subscribing, you acknowledge and agree to KSL.com's Terms of Use and Privacy Policy.

    KSL Weather Forecast